Regional Weather Roundup
Issued by NWS

Current Version | Previous Version | Text Only | Print | Product List | Glossary On
Versions: 1 2 3 4 5 6 7 8 9 10 11 12 13 14 15 16 17 18 19 20 21 22 23 24 25 26 27 28 29 30 31 32 33 34 35 36 37 38 39 40 41 42 43 44 45 46 47 48 49 50
000
ASUS43 KFSD 030810
RWRSD

WEATHER ROUNDUP FOR SOUTH DAKOTA
NATIONAL WEATHER SERVICE SIOUX FALLS SD
300 AM CDT MON AUG 03 2015

NOTE: "FAIR" INDICATES FEW OR NO CLOUDS BELOW 12,000 FEET WITH NO
SIGNIFICANT WEATHER AND/OR OBSTRUCTIONS TO VISIBILITY.


SDZ001>005-009-010-012>017-030900-
NORTHWEST AND NORTH CENTRAL SOUTH DAKOTA

CITY           SKY/WX    TMP DP  RH WIND       PRES   REMARKS
BUFFALO          N/A     61  49  64 E8        29.98F
FAITH            N/A     62  47  57 E5        30.01F
MOBRIDGE       CLEAR     58  55  90 N6        29.97S
$$

SDZ012>016-024>037-041>051-057-063-072>074-030900-
SOUTHWEST AND SOUTH CENTRAL SOUTH DAKOTA

CITY           SKY/WX    TMP DP  RH WIND       PRES   REMARKS
RAPID CTY ARPT CLEAR     60  52  74 CALM      30.04S
PIERRE         CLEAR     60  53  77 E5        29.96S
CUSTER         CLEAR     59  48  67 E5        30.16F
ELLSWORTH AFB  CLEAR     64  52  64 SW3       30.03F
PHILIP         CLEAR     59  55  87 SW3       29.99S
PINE RIDGE     CLEAR     63  56  78 E7        30.02F
WINNER         FAIR      67  57  70 S3        29.98S
$$

SDZ004>011-016>023-039-040-030900-
NORTHEAST SOUTH DAKOTA

CITY           SKY/WX    TMP DP  RH WIND       PRES   REMARKS
ABERDEEN       CLEAR     54  52  93 W3        29.95F
WATERTOWN      CLEAR     57  53  86 CALM      29.96S
BROOKINGS      CLEAR     57  54  88 CALM      29.97F
SISSETON         N/A     55  50  83 NW7       29.92S
$$

SDZ017-020-022-023-036>040-048>070-030900-
SOUTHEAST SOUTH DAKOTA

CITY           SKY/WX    TMP DP  RH WIND       PRES   REMARKS
SIOUX FALLS    CLEAR     60  57  89 NE6       29.94F
HURON          CLEAR     60  57  89 CALM      29.94F
CHAMBERLAIN    CLEAR     59  57  91 CALM      29.96F
MITCHELL       CLEAR     61  58  90 CALM      29.95S
YANKTON        CLEAR     63  57  82 CALM      29.94R
$$

ABBREVIATIONS USED IN REMARKS
   TC - TEMPERATURE IN CELSIUS
  WCI - WIND CHILL INDEX
   HX - HEAT INDEX
  VSB - VISIBILITY



USA.gov is the U.S. government's official web portal to all federal, state and local government web resources and services.